軌道要素
Epoch 2018 Feb. 11.0 TT = JDT 2458160.5
T 2018 Feb. 17.86454 TT MPCW
q 9.2164107 (2000.0) P Q
z +0.0000154 Peri. 78.39498 -0.41272795 -0.83512672
+/-0.0000017 Node 42.69035 +0.47374371 -0.53777915
e 0.9998581 Incl. 32.43098 +0.77796050 -0.11557226
From 78 observations 2017 Jan. 3-2019 Apr. 25, mean residual 0".5.
|